Location: Caltech
(34.1382°N, 118.1253°W)
Time: 03:17:26
(UTC-08:00)

ALOS - Visible Passes

Search period start: 23 November 2017 00:00
Search period end: 03 December 2017 00:00
Orbit: 684 x 686 km, 97.8° (Epoch: 23 November)

Date Brightness Start Highest point End Pass type
(mag) Time Alt. Az. Time Alt. Az. Time Alt. Az.
23 Nov 5.2 06:06:29 10° NE 06:09:47 19° E 06:13:02 10° SE visible
23 Nov 3.9 17:07:53 10° E 17:09:56 13° ENE 17:12:00 10° NE visible
23 Nov 2.9 18:42:18 10° S 18:46:51 54° W 18:51:26 10° NNW visible
24 Nov 2.9 17:42:56 10° SE 17:47:03 31° ENE 17:51:09 10° N visible
24 Nov 4.7 19:21:00 10° SW 19:24:28 21° W 19:27:57 10° NW visible
25 Nov 5.9 05:46:29 10° E 05:47:04 10° E 05:47:40 10° E visible
25 Nov 2.1 18:19:41 10° SSE 18:24:21 84° ENE 18:29:02 10° N visible
26 Nov 3.6 17:21:31 10° ESE 17:24:43 19° ENE 17:27:56 10° NNE visible
26 Nov 3.7 18:57:34 10° SSW 19:01:51 36° W 19:06:09 10° NNW visible
27 Nov 2.5 17:57:27 10° SSE 18:01:54 46° ENE 18:06:23 10° N visible
27 Nov 5.2 19:37:09 10° WSW 19:39:32 14° W 19:41:55 10° WNW visible
28 Nov 5.3 05:59:20 10° NE 06:02:10 16° E 06:04:58 10° SE visible
28 Nov 2.6 18:34:40 10° S 18:39:17 65° W 18:43:57 10° NNW visible
29 Nov 3.1 17:35:39 10° SE 17:39:32 27° ENE 17:43:26 10° NNE visible
29 Nov 4.4 19:13:05 10° SSW 19:16:52 24° W 19:20:40 10° NW visible
30 Nov 2.1 18:12:10 10° SSE 18:16:48 70° ENE 18:21:27 10° N visible
01 Dec 3.7 17:14:26 10° ESE 17:17:14 16° ENE 17:20:00 10° NNE visible
01 Dec 3.4 18:49:50 10° S 18:54:16 43° W 18:58:42 10° NNW visible
02 Dec 2.7 17:50:03 10° SE 17:54:22 39° ENE 17:58:42 10° N visible
02 Dec 5.0 19:28:57 10° SW 19:31:55 17° W 19:34:52 10° NW visible
